Regional Weather Roundup
Issued by NWS

Home | Current Version | Previous Version | Graphics & Text | Print | Product List | Glossary On
Versions: 1 2 3 4 5 6 7 8 9 10 11 12 13 14 15 16 17 18 19 20 21 22 23 24 25 26 27 28 29 30 31 32 33 34 35 36 37 38 39 40 41 42 43 44 45 46 47 48 49 50
187
ASUS43 KLSX 260810
RWRMO

WEATHER SUMMARY FOR MISSOURI
NATIONAL WEATHER SERVICE SPRINGFIELD MO
300 AM CDT WED JUL 26 2017

NOTE: "FAIR" INDICATES FEW OR NO CLOUDS BELOW 12,000 FEET WITH NO
       SIGNIFICANT WEATHER AND/OR OBSTRUCTIONS TO VISIBILITY.
       CURRENT SKY AND/OR WEATHER CONDITIONS ARE NOT AVAILABLE FOR
       CHILLICOTHE AND FARMINGTON.

MOZ001>031-035>038-043-044-053-054-260900-
...NORTHERN AND WESTERN MISSOURI...

CITY           SKY/WX    TMP DP  RH WIND       PRES   REMARKS
KANSAS CTY INT PTCLDY    80  73  79 S9        30.00F
KANSAS C DTWN  PTCLDY    81  74  79 S6        30.00F
LEE`S SUMMIT   CLOUDY    80  74  81 S12       30.02F
ST JOSEPH      MOCLDY    79  76  90 S7        29.99F
CHILLICOTHE      N/A     77  71  82 SE3       30.03F
KIRKSVILLE     CLEAR     71  69  93 S5        30.06F

$$
MOZ066>068-077>081-088>096-101>105-260900-
...SOUTHWEST MISSOURI...

CITY           SKY/WX    TMP DP  RH WIND       PRES   REMARKS
SPRINGFIELD    CLEAR     76  72  87 S5        30.08S
JOPLIN         PTCLDY    80  74  81 S8        30.07S
BRANSON          N/A     77  72  83 SW3       30.11S

$$
MOZ032>034-039>042-045>050-055>058-069>072-260900-
...CENTRAL MISSOURI...

CITY           SKY/WX    TMP DP  RH WIND       PRES   REMARKS
COLUMBIA       CLOUDY    75  72  90 E6        30.05F
JEFFERSON CITY CLOUDY    74  73  97 CALM      30.04S
ROLLA          CLEAR     72  71  97 S6        30.07F
SEDALIA        CLEAR     75  71  87 SE5       30.05F
OSAGE BEACH    CLEAR     72  67  84 CALM      30.06S

$$
MOZ051-052-059>065-260900-
...EAST CENTRAL MISSOURI...

CITY           SKY/WX    TMP DP  RH WIND       PRES   REMARKS
ST LOUIS INTL  PTCLDY    80  69  69 SE10      30.07F
SPIRIT OF STL  PTCLDY    78  73  84 E3        30.05F
ST CHARLES     CLOUDY    75  71  87 E7        30.06F

$$
MOZ072>076-082>087-097>100-106>115-260900-
...SOUTH CENTRAL AND SOUTHEAST MISSOURI...

CITY           SKY/WX    TMP DP  RH WIND       PRES   REMARKS
CAPE GIRARDEAU PTCLDY    76  73  91 CALM      30.06S
FARMINGTON     CLOUDY    76  75  97 S5        30.10R
POPLAR BLUFF   CLEAR     76  75  97 CALM      30.06S
WEST PLAINS    CLEAR     76  72  87 SW6       30.11R

$$




USA.gov is the U.S. government's official web portal to all federal, state and local government web resources and services.